Location: Claflin County Park
(44.8478°N, 87.5507°W)
Time: 01:24:40
(UTC+00:00)

BREEZE-M DEB (TANK) - Pass Details

Date: 10 December 2025
Orbit: 307 x 15894 km, 49.3° (Epoch: 17 January)

Event Time Altitude Azimuth Distance (km) Brightness Sun altitude
Rises 00:47:01 0° 294° (WNW) 2,677 6.7 -27.1°
Reaches altitude 10° 00:48:22 10° 294° (WNW) 2,078 6.0 -27.3°
Maximum altitude 00:52:36 90° 202° (SSW) 1,212 3.8 -28.0°
Enters shadow 00:56:00 44° 116° (ESE) 2,291 4.9 -28.6°
